{"data":{"norad_id":46343,"intl_designator":"2020-062U","name":"STARLINK-1764","alt_names":[],"object_type":"PAYLOAD","status":"ACTIVE","operator":null,"country":"US","launch_date":"2020-09-03","launch_site_code":"AFETR","launch_vehicle":null,"mission":null,"orbit_class":"UNKNOWN","rcs_meters":null,"size_class":null,"mass_kg":null,"dimensions":null,"purposes":["comms"],"wikipedia_slug":null,"has_3d_model":false,"image_url":null,"decayed_at":null,"tle_current":{"epoch":"2026-06-15T04:08:44.718720Z","epoch_age_seconds":8431067,"freshness":"OLD","line1":"1 46343U 20062U   26166.17273980  .05925273  12298-4  69977-3 0  9998","line2":"2 46343  53.0126 185.2450 0005703 315.5239  44.5347 16.35787347320594","mean_motion":16.35787347,"eccentricity":0.0005703,"inclination_deg":53.0126,"raan_deg":185.245,"arg_perigee_deg":315.5239,"mean_anomaly_deg":44.5347,"bstar":0.00069977,"rev_number":32059,"period_min":88.031002479688,"perigee_km":173.29437397163,"apogee_km":180.77120063103,"semimajor_km":6555.1697873013,"source":"CELESTRAK","updated_at":"2026-06-15T09:01:40.308289Z"}}}